OPS 4682 DEB, 38456

Orbit data source: Space-Track

OPS 4682 DEB, 38456 is space debris in LEO originally from a launch on Sat, 03 Apr 1965 UTC launched from the Air Force Western Test Range (AFWTR). Debris objects in space refer to the collection of defunct objects orbiting the Earth. Examples of debris include non-operational satellites, rocket bodies, and fragments generated from explosions, collisions, or faulty payload assembly.

Loading next visibility...
Identifier
38456, 1965-027FM
Orbit
LEO
Country
Flag of USUS
Related business
Manufacturer
Unknown
Mission
Spacecraft
Bus & Motor
Unknown
Mass
Unknown
Launch date (UTC)
1965-04-03 (61 years ago)
Launch vehicle
Unknown
Launch site
Air Force Western Test Range (AFWTR)
Object type
Payload
Rocket body
Debris
Shape & HBR
Unknown shape, 0.1 m
Radar Cross Section
Small (<0.1 m²)

Expand to show TLE details & history
Last TLE update: 3 days ago

TLE from 3 days ago
0 OPS 4682 DEB
1 38456U 65027FM  26033.62206508 -.00000197  00000-0 -70631-3 0  9998
2 38456  90.2684   0.6573 0021820  16.5328 343.6499 12.97374968 72481
Epoch: 2026-02-02T14:55Z
TLE epoch observation values (Epoch: 2026-02-02T14:55:46.422Z)
Latitude
-0.0001°
Longitude
3.89916°
Altitude
1,259.25 km
Speed
7.233 km/s
True Right ascension
00h 02m 37s
True Declination
0° 00' 00"
Sunlit
Object was in daylight at epoch
Visualization orbit readout
Latitude
Unknown
Longitude
Unknown
Altitude
Unknown
Speed
Unknown
Apparent Right ascension
Unknown
Apparent Declination
Unknown
Sunlit
N/A
Visualization observer readout
Local Sidereal Time
11:56:59
Azimuth
Unknown
Elevation
Unknown
Doppler factor
Unknown
Orbital elements
Apogee altitude
1,286.207 km
Perigee altitude
1,252.833 km
Semi-major axis
7,647.657 km
Eccentricity
0.00218
Inclination
90.2684°
RAAN
0.6573°
Arg. of periapsis
16.5328°
True anomaly
343.57933°
Mean anomaly
343.6499°
Eccentric anomaly
343.61463°
Mean motion
3.24527 °/min
Orbital period
110.93 mins
BSTAR
-0.00070631
Loading maneuver chart data...
Computing Atmospheric mass density...
Loading historical data...
Loading historical data...
Loading historical data...
Loading historical data...
Loading historical data...
Loading historical data...
Loading historical data...

Documentation

Showing up to 5 results
|